SEASAT 1 1 10967U 78064A 08279.75569040 -.00000084 +00000-0 +15946-4 0 06359 2 10967 108.0072 153.0916 0001534 273.6439 086.4545 14.42105695588498 LANDSAT 4 1 13367U 82072A 08280.58060543 .00000263 00000-0 25129-4 0 8373 2 13367 098.1961 175.4221 0019712 103.4767 256.8648 15.02110219406445 LANDSAT 5 1 14780U 84021A 08280.38785173 .00000020 00000-0 14329-4 0 8517 2 14780 098.1374 344.5600 0007098 160.7175 199.4291 14.57145924308421 COSMOS 1602 1 15331U 84105A 08280.52574241 .00000137 00000-0 84518-5 0 6415 2 15331 082.5276 159.2575 0015225 005.9277 354.2123 15.01232261303979 SPOT 1 1 16613U 86019A 08280.53261802 .00000015 00000-0 13270-4 0 2419 2 16613 098.7706 106.4316 0152802 123.5106 238.0774 14.60782055865337 COSMOS 1766 1 16881U 86055A 08280.38418525 .00000660 00000-0 51543-4 0 1482 2 16881 082.5119 218.0962 0016137 069.7782 290.5194 14.99431391204186 MOS 1A (MOMO 1) 1 17527U 87018A 08280.46554125 .00000344 00000-0 25444-3 0 9472 2 17527 098.9175 240.3076 0008577 060.6515 299.5503 14.01894059104419 IRS 1A 1 18960U 88021A 08280.40271650 .00000074 00000-0 86402-4 0 3478 2 18960 099.2427 234.5776 0013988 209.8394 309.7055 13.96400595951261 OKEAN 1 1 19274U 88056A 08279.71672228 +.00000320 +00000-0 +25756-4 0 04811 2 19274 082.5089 331.0402 0013269 273.9187 086.0518 14.96641966098689 SPOT 2 1 20436U 90005A 08280.56341016 -.00000040 00000-0 15578-5 0 6693 2 20436 098.6385 349.6462 0000381 150.4756 340.3613 14.20068932969694 MOS 1B (MOMO 1B) 1 20478U 90013A 08279.97638895 -.00000191 +00000-0 -11071-3 0 04299 2 20478 098.8605 245.2237 0005905 136.5310 223.6318 13.94931328870869 OKEAN 2 1 20510U 90018A 08279.68618360 +.00000170 +00000-0 +14345-4 0 08673 2 20510 082.5178 320.6415 0013438 195.4617 164.6215 14.91632059006971 OKEAN 3 1 21397U 91039A 08280.31814102 .00000147 00000-0 13684-4 0 4580 2 21397 082.5188 258.7976 0020336 008.2666 351.8890 14.86754621937155 ERS 1 1 21574U 91050A 08279.68784412 -.00000050 +00000-0 -34262-5 0 02712 2 21574 098.1817 305.1647 0034948 113.6463 246.8402 14.35670290901578 IRS 1B 1 21688U 91061A 08279.82834471 -.00000247 +00000-0 -14765-3 0 02810 2 21688 098.7153 298.2119 0025447 115.1336 245.2456 13.96902821766114 TOPEX/POSEIDON 1 22076U 92052A 08279.95655072 -.00000038 +00000-0 +10000-3 0 03125 2 22076 066.0383 238.7860 0007884 265.8692 094.1422 12.80944113755680 SPOT 3 1 22823U 93061A 08280.38653365 .00000001 00000-0 20478-4 0 710 2 22823 098.5293 240.5473 0017737 026.0420 334.1643 14.18648188778161 OKEAN 4 1 23317U 94066A 08279.80709675 .00000244 00000-0 27144-4 0 7124 2 23317 082.5404 211.8418 0023576 119.9892 240.3675 14.82639385754673 IRS P2 1 23323U 94068A 08279.86845039 -.00000035 +00000-0 +28394-5 0 01418 2 23323 098.3742 258.3634 0000987 074.8118 285.3165 14.23042801725630 RESURS O1 1 23342U 94074A 08280.34810829 -.00000138 00000-0 -12379-4 0 4187 2 23342 097.9819 249.5945 0000469 074.2341 285.8945 14.76764078748737 ERS 2 1 23560U 95021A 08280.67161082 -.00000256 00000-0 -78736-4 0 4155 2 23560 098.5414 353.1688 0001024 090.6853 269.4467 14.32249899703921 SICH 1 1 23657U 95046A 08280.58293785 .00000189 00000-0 20848-4 0 5116 2 23657 082.5315 352.1256 0025526 112.1156 248.2758 14.81606010706714 RADARSAT 1 23710U 95059A 08280.86777999 .00000079 00000-0 47560-4 0 5517 2 23710 098.5808 285.2845 0001096 086.3527 032.8230 14.29987084674607 IRS 1C 1 23751U 95072A 08280.50349051 -.00000006 00000-0 15773-4 0 5198 2 23751 098.3455 292.5790 0001161 071.9793 288.1516 14.21800236663028 IRS B3 1 23827U 96017A 08280.47176248 -.00000097 00000-0 -25526-4 0 3897 2 23827 098.3568 264.3839 0002412 259.2674 100.8224 14.21665975651074 TOMS EP 1 23940U 96037A 08280.47796206 .00000012 00000-0 13608-4 0 8907 2 23940 098.0614 157.1359 0030405 061.0677 299.3545 14.52200145652608 ADEOS 1 24277U 96046A 08279.92000816 -.00000032 +00000-0 +38958-5 0 09005 2 24277 098.3274 249.4437 0000897 358.7090 001.4088 14.28587905632625 ORBVIEW 2 (SEASTAR) 1 24883U 97037A 08280.42662565 .00000019 00000-0 13794-4 0 4976 2 24883 098.3174 037.1670 0000710 292.4053 067.7081 14.59957049595412 IRS 1D 1 24971U 97057A 08280.54000698 -.00000030 00000-0 42675-5 0 6283 2 24971 098.2749 322.4954 0054034 331.8952 027.9321 14.32957207576507 TRMM 1 25063U 97074A 08279.91386451 +.00004202 +00000-0 +59015-4 0 08863 2 25063 034.9663 220.3507 0001101 260.1094 099.9532 15.56063623620465 SPOT 4 1 25260U 98017A 08280.54599713 .00000176 00000-0 10292-3 0 4436 2 25260 098.6879 351.5032 0000720 117.5737 354.6072 14.20048826546336 RESURS O1-N4 1 25394U 98043A 08279.97383389 +.00000017 +00000-0 +25169-4 0 00449 2 25394 098.3759 318.8233 0000497 231.6231 128.4902 14.24172124532219 FASAT B 1 25395U 98043B 08279.96434814 +.00000024 +00000-0 +28370-4 0 02828 2 25395 098.3719 317.6520 0001881 227.3089 132.7931 14.24312708532251 TMSAT 1 25396U 98043C 08279.73944046 -.00000217 +00000-0 -76989-4 0 02237 2 25396 098.3644 314.5633 0001750 254.9306 105.1680 14.23762350532091 TECHSAT 1B 1 25397U 98043D 08280.47675683 .00000057 00000-0 43422-4 0 7140 2 25397 098.3536 310.0918 0000366 302.5329 057.5805 14.23149354532043 ROCSAT 1 1 25616U 99002A 08279.48114682 .00000055 00000-0 67103-5 0 6797 2 25616 034.9656 287.1624 0047493 051.5276 308.9678 15.00228888529153 SUNSAT 1 25636U 99008C 08279.85593984 .00000006 00000-0 10058-4 0 1261 2 25636 096.4676 159.0352 0147145 307.7984 050.9968 14.43443508506416 LANDSAT 7 1 25682U 99020A 08280.49382994 -.00000066 00000-0 -47407-5 0 9383 2 25682 098.1811 345.7273 0000677 102.3415 257.7864 14.57123765504133 UOSAT 12 1 25693U 99021A 08279.58255163 -.00000131 +00000-0 +19089-5 0 07432 2 25693 064.5577 178.0230 0032714 222.8449 137.0107 14.78723159510192 KITSAT 3 1 25756U 99029A 08280.52752140 -.00000042 00000-0 15679-5 0 7389 2 25756 098.6644 099.0856 0013351 223.2763 136.7397 14.52510720496337 TUBSAT 1 25757U 99029B 08280.55632087 -.00000002 00000-0 11601-4 0 1133 2 25757 098.6722 090.1251 0013440 248.3290 111.6485 14.50829940495938 IRS P4 (OCEANSAT 1) 1 25758U 99029C 08279.44500573 .00000062 00000-0 26932-4 0 9747 2 25758 098.2809 012.5056 0000854 034.5548 325.5703 14.50851810495927 QUIKSCAT 1 25789U 99034A 08279.60246692 -.00000020 +00000-0 +98507-5 0 02582 2 25789 098.6354 106.0793 0000543 034.2177 325.9036 14.26776850484156 OKEAN O 1 25860U 99039A 08279.87027315 -.00000011 +00000-0 +55503-5 0 04913 2 25860 097.7612 265.5820 0000658 049.5710 310.5554 14.73537850495697 IKONOS 2 1 25919U 99051A 08280.51137279 -.00000021 00000-0 48417-5 0 526 2 25919 098.1081 353.6236 0001418 112.0607 248.0752 14.64448652482932 CBERS 1 1 25940U 99057A 08280.79504919 -.00000032 00000-0 29035-5 0 1242 2 25940 098.1648 294.2322 0006199 117.8247 242.3557 14.34431770470482 TERRA 1 25994U 99068A 08280.51400931 .00000037 00000-0 18230-4 0 160 2 25994 098.2011 353.0512 0001614 094.4491 265.6895 14.57116697468213 KOMPSAT 1 26032U 99070A 08280.52308718 .00000077 00000-0 22713-4 0 1759 2 26032 097.9507 163.7284 0004533 332.6898 027.4052 14.65547864470334 TIUNGSAT 1 1 26548U 00057D 08279.67099954 -.00000000 +00000-0 +18259-4 0 02153 2 26548 064.5574 148.3932 0040110 308.9321 050.8203 14.83300671434204 EO 1 1 26619U 00075A 08280.49996261 .00001480 00000-0 30570-3 0 3861 2 26619 098.1522 345.4970 0009610 027.8432 332.3300 14.61790762419200 SAC C 1 26620U 00075B 08280.49496464 .00000091 00000-0 29913-4 0 5424 2 26620 097.9449 319.6807 0001572 081.0638 279.0756 14.56531260418748 EROS A1 1 26631U 00079A 08280.35429764 .00002331 00000-0 10240-3 0 1320 2 26631 097.3515 344.1036 0008703 132.1575 357.0235 15.22877055435934 QUICKBIRD 2 1 26953U 01047A 08280.39456981 .00002136 00000-0 55775-4 0 2561 2 26953 097.1706 356.5433 0002443 092.5199 037.4954 15.39880857391553 TES 1 26957U 01049A 08280.54023829 -.00001918 00000-0 -15067-3 0 3913 2 26957 097.5609 359.2500 0021717 348.1397 011.9352 14.99539462381177 JASON 1 26997U 01055A 08279.41150781 -.00000038 +00000-0 +10000-3 0 09342 2 26997 066.0426 239.8346 0007767 262.3384 097.6749 12.80930488319401 METEOR 3M 1 27001U 01056A 08279.85933435 -.00000019 +00000-0 +27166-4 0 02796 2 27001 099.2894 139.1837 0013753 340.9924 019.0707 13.68703739340722 BADR B 1 27003U 01056C 08279.75195108 +.00000116 +00000-0 +17993-3 0 01853 2 27003 099.2832 144.9814 0020236 345.1368 014.9177 13.70095824341119 MAROC TUBSAT 1 27004U 01056D 08279.79131155 +.00000023 +00000-0 +74373-4 0 02180 2 27004 099.2814 144.4489 0020141 345.9163 014.1418 13.70024335341095 ENVISAT 1 27386U 02009A 08279.88237951 -.00000128 00000-0 -31176-4 0 6752 2 27386 098.5484 344.9103 0000895 083.0277 277.0999 14.32247766345095 SPOT 5 1 27421U 02021A 08280.50132316 .00000359 00000-0 18882-3 0 3687 2 27421 098.6754 350.1166 0001517 094.1064 266.0283 14.20057136333169 AQUA 1 27424U 02022A 08280.53450001 .00000105 00000-0 33406-4 0 9920 2 27424 098.2403 219.8396 0001164 084.6776 275.4551 14.57102960341827 HAIYANG 1 1 27430U 02024A 08279.80990858 +.00000029 +00000-0 +27891-4 0 08987 2 27430 098.5148 346.1321 0009710 105.5267 254.6988 14.29668432333721 ALSAT 1 1 27559U 02054A 08280.38723141 .00000037 00000-0 16209-4 0 6647 2 27559 097.9761 157.6515 0010953 148.9916 211.1929 14.62980949312581 ADEOS 2 1 27597U 02056A 08279.81234987 -.00000055 +00000-0 -50080-5 0 06774 2 27597 098.5096 346.0487 0000743 018.4447 341.6786 14.26140049302532 ICESAT 1 27642U 03002A 08279.91868341 +.00000512 +00000-0 +53284-4 0 00515 2 27642 094.0006 163.7423 0002262 069.4924 290.6549 14.90872938311780 ORBVIEW 3 1 27838U 03030A 08280.37783597 .00002042 00000-0 53524-4 0 7901 2 27838 097.0941 341.4159 0001017 095.4823 033.3212 15.39796739296333 IRS P6 1 28051U 03046A 08280.66723364 .00000012 00000-0 25562-4 0 9137 2 28051 098.7429 353.3724 0002631 135.2146 224.9244 14.21615596258099 CBERS 2 1 28057U 03049A 08280.49422699 -.00000029 00000-0 44313-5 0 7081 2 28057 098.3222 336.2997 0000671 225.9569 134.1571 14.35341777260014 TANSUO 1 1 28220U 04012A 08279.76555533 +.00000115 +00000-0 +17934-4 0 00060 2 28220 097.5305 324.3323 0011451 325.6285 034.4234 14.88555281242564 ROCSAT 2 1 28254U 04018A 08280.57955634 .00000106 00000-0 10000-3 0 112 2 28254 098.9076 341.4163 0001485 190.8476 299.3814 14.00779349224016 AURA 1 28376U 04026A 08280.54045471 .00000113 00000-0 35259-4 0 3241 2 28376 098.2386 221.9974 0001254 092.0725 268.0608 14.57098671224876 CARTOSAT-1 1 28649U 05017A 08280.52439614 .00000040 00000-0 11467-4 0 8956 2 28649 097.8975 351.2255 0001516 110.2728 249.8654 14.82648586185276 TOPSAT 1 28891U 05043B 08280.82441244 .00000060 00000-0 22006-4 0 3249 2 28891 098.0754 171.6044 0018290 062.7568 297.5497 14.59733687156907 SINAH 1 1 28893U 05043D 08280.51176088 .00000012 00000-0 12104-4 0 2769 2 28893 098.0784 171.9969 0016706 062.6579 297.6316 14.60051884156895 ALOS 1 28931U 06002A 08280.35414592 .00000064 00000-0 23118-4 0 565 2 28931 098.2175 352.3444 0001027 102.1515 257.9816 14.59541051143873 EROS B 1 29079U 06014A 08280.39570006 .00001383 00000-0 64606-4 0 7861 2 29079 097.4208 038.5705 0006792 193.0184 249.9226 15.21455642135926 YAOGAN 1 1 29092U 06015A 08280.54078304 .00000002 00000-0 69237-5 0 7568 2 29092 097.8258 274.8169 0000664 078.4966 281.6322 14.80278762132247 RESURS DK-1 1 29228U 06021A 08280.55573125 .00001429 00000-0 31047-4 0 6197 2 29228 069.9358 329.6887 0161143 215.9507 143.0720 15.34973788129445 KOMPSAT 2 1 29268U 06031A 08280.34564386 .00000034 00000-0 16227-4 0 4561 2 29268 098.0626 173.5144 0016927 221.5906 138.3999 14.61662485117009 LAPAN-TUBSAT 1 29709U 07001A 08280.37152659 -.00000023 00000-0 37682-5 0 9291 2 29709 097.8535 336.1504 0014300 033.7557 326.4558 14.80226857 93936 CARTOSAT 2AT 1 29710U 07001B 08280.35393819 .00000062 00000-0 15431-4 0 9374 2 29710 097.9206 339.5432 0002247 102.2598 257.8870 14.78647559 93875 HAIYANG 1B 1 31113U 07010A 08280.39364020 -.00000001 00000-0 16911-4 0 6634 2 31113 098.5750 352.5053 0023454 070.2239 290.1480 14.28219758 77688